ZSMUL FCOI-FZAA

Flight info

Callsign ZSMUL
Flight time N/A
Altitude 13000
Route ARERI ATS29 MBA/N0207F120 V30 GUSAR GUSAR1A
Aircraft DC6/M-SDFGRWY/S

Departure

Time 2026-05-06 12:03
Airport Impfondo Airport (FCOI)

Arrival

Time N/A
Airport Ndjili International Airport (FZAA)
Time Latitude Longitude Altitude Speed Heading
2026-05-06 11:05 1.59236 18.05074 1060 ft 0 kts 27°
2026-05-06 11:52 1.59228 18.05071 1060 ft 4 kts 26°
2026-05-06 11:53 1.59204 18.05059 1060 ft 4 kts 25°
2026-05-06 11:53 1.59191 18.05053 1059 ft 1 kts 24°
2026-05-06 11:53 1.59190 18.05052 1059 ft 0 kts 24°
2026-05-06 11:57 1.59193 18.05054 1060 ft 1 kts 24°
2026-05-06 11:57 1.59215 18.05056 1060 ft 3 kts 327°
2026-05-06 11:57 1.59219 18.05049 1060 ft 1 kts 255°
2026-05-06 11:58 1.59215 18.05045 1060 ft 2 kts 211°
2026-05-06 11:58 1.59188 18.05046 1059 ft 7 kts 167°
2026-05-06 11:58 1.59119 18.05064 1058 ft 13 kts 167°
2026-05-06 11:58 1.59028 18.05104 1055 ft 13 kts 110°
2026-05-06 11:59 1.59039 18.05203 1055 ft 17 kts 80°
2026-05-06 11:59 1.59058 18.05317 1056 ft 15 kts 80°
2026-05-06 11:59 1.59074 18.05408 1058 ft 11 kts 79°
2026-05-06 11:59 1.59084 18.05464 1059 ft 6 kts 80°
2026-05-06 12:00 1.59089 18.05495 1060 ft 4 kts 80°
2026-05-06 12:00 1.59097 18.05525 1060 ft 6 kts 69°
2026-05-06 12:00 1.59123 18.05567 1060 ft 4 kts 68°
2026-05-06 12:00 1.59122 18.05574 1060 ft 1 kts 132°
2026-05-06 12:01 1.59106 18.05572 1060 ft 4 kts 239°
2026-05-06 12:01 1.59097 18.05544 1060 ft 8 kts 259°
2026-05-06 12:01 1.59067 18.05366 1057 ft 46 kts 260°
2026-05-06 12:01 1.58994 18.04929 1055 ft 81 kts 260°
2026-05-06 12:02 1.58883 18.04270 1069 ft 108 kts 260°
2026-05-06 12:02 1.58757 18.03484 1143 ft 119 kts 259°
2026-05-06 12:02 1.58604 18.02662 1313 ft 122 kts 257°
2026-05-06 12:02 1.58245 18.01881 1432 ft 129 kts 226°
2026-05-06 12:03 1.57443 18.01419 1574 ft 137 kts 193°
2026-05-06 12:03 1.56477 18.01444 1749 ft 144 kts 164°
2026-05-06 12:03 1.55599 18.01963 1813 ft 156 kts 135°
2026-05-06 12:03 1.54881 18.02812 1979 ft 162 kts 129°
2026-05-06 12:04 1.54181 18.03719 2134 ft 168 kts 128°
2026-05-06 12:04 1.53461 18.04657 2341 ft 170 kts 129°
2026-05-06 12:04 1.52695 18.05553 2496 ft 172 kts 135°
2026-05-06 12:04 1.51770 18.06316 2688 ft 172 kts 147°
2026-05-06 12:05 1.50787 18.07013 2821 ft 174 kts 145°
2026-05-06 12:05 1.49815 18.07743 3001 ft 178 kts 145°
2026-05-06 12:05 1.48800 18.08486 3098 ft 183 kts 145°
2026-05-06 12:05 1.47788 18.09258 3278 ft 183 kts 144°
2026-05-06 12:06 1.46770 18.10014 3470 ft 181 kts 145°
2026-05-06 12:06 1.45753 18.10758 3651 ft 180 kts 145°
2026-05-06 12:06 1.44722 18.11425 3791 ft 178 kts 153°
2026-05-06 12:06 1.43611 18.11975 3959 ft 177 kts 157°
2026-05-06 12:07 1.42488 18.12473 4133 ft 176 kts 157°
2026-05-06 12:07 1.41369 18.12972 4311 ft 176 kts 157°
2026-05-06 12:07 1.40254 18.13469 4484 ft 175 kts 158°
2026-05-06 12:07 1.39142 18.13965 4645 ft 174 kts 157°
2026-05-06 12:08 1.38043 18.14456 4789 ft 175 kts 157°
2026-05-06 12:08 1.36932 18.14951 4969 ft 174 kts 157°
2026-05-06 12:08 1.35826 18.15446 5140 ft 174 kts 156°
2026-05-06 12:08 1.34719 18.15937 5293 ft 175 kts 156°
2026-05-06 12:09 1.33609 18.16437 5448 ft 175 kts 156°
2026-05-06 12:09 1.32496 18.16933 5595 ft 175 kts 155°
2026-05-06 12:09 1.31396 18.17426 5754 ft 175 kts 156°
2026-05-06 12:09 1.30284 18.17923 5894 ft 175 kts 156°
2026-05-06 12:10 1.29164 18.18424 6044 ft 175 kts 155°
2026-05-06 12:10 1.28060 18.18916 6195 ft 175 kts 156°
2026-05-06 12:10 1.26942 18.19414 6320 ft 175 kts 155°
2026-05-06 12:10 1.25833 18.19914 6460 ft 175 kts 155°
2026-05-06 12:11 1.24710 18.20412 6608 ft 176 kts 154°
2026-05-06 12:11 1.23601 18.20908 6739 ft 177 kts 153°
2026-05-06 12:11 1.22474 18.21413 6884 ft 178 kts 154°
2026-05-06 12:11 1.21340 18.21917 7027 ft 178 kts 154°
2026-05-06 12:12 1.20207 18.22426 7154 ft 178 kts 153°
2026-05-06 12:12 1.19086 18.22928 7297 ft 178 kts 153°
2026-05-06 12:12 1.17949 18.23435 7428 ft 179 kts 153°
2026-05-06 12:12 1.16810 18.23943 7553 ft 179 kts 153°
2026-05-06 12:13 1.15668 18.24454 7681 ft 180 kts 153°
2026-05-06 12:13 1.14537 18.24959 7813 ft 180 kts 152°
2026-05-06 12:13 1.13392 18.25471 7945 ft 180 kts 152°
2026-05-06 12:13 1.12239 18.25987 8044 ft 184 kts 152°
2026-05-06 12:14 1.11061 18.26514 8133 ft 189 kts 152°
2026-05-06 12:14 1.09846 18.27055 8251 ft 192 kts 152°
2026-05-06 12:14 1.08612 18.27607 8373 ft 195 kts 152°
2026-05-06 12:14 1.07367 18.28162 8498 ft 196 kts 152°
2026-05-06 12:15 1.06114 18.28723 8647 ft 198 kts 152°
2026-05-06 12:15 1.04868 18.29279 8767 ft 199 kts 151°